Météo par heure à Jūrmala

Ce jour, 20 Juin, Dimanche

Heure Température Précipitation Vent Pression Humidité
00:00 +20°C° 0 mm 3 m/s 762 mmHg 89%
01:00 +20°C° 0 mm 3 m/s 762 mmHg 90%
02:00 +19°C° 0 mm 3 m/s 762 mmHg 92%
03:00 +19°C° 0 mm 3 m/s 762 mmHg 91%
04:00 +19°C° 0 mm 3 m/s 762 mmHg 90%
05:00 +19°C° 0 mm 3 m/s 762 mmHg 89%
06:00 +21°C° 0 mm 3 m/s 762 mmHg 82%
07:00 +24°C° 0 mm 3 m/s 762 mmHg 75%
08:00 +26°C° 0 mm 4 m/s 761 mmHg 67%
09:00 +27°C° 0 mm 4 m/s 762 mmHg 62%
10:00 +29°C° 0 mm 4 m/s 762 mmHg 56%
11:00 +30°C° 0 mm 4 m/s 762 mmHg 51%
12:00 +32°C° 0 mm 4 m/s 762 mmHg 49%
13:00 +32°C° 0 mm 4 m/s 761 mmHg 46%
14:00 +33°C° 0 mm 4 m/s 761 mmHg 44%
15:00 +32°C° 0 mm 4 m/s 761 mmHg 46%
16:00 +32°C° 0 mm 4 m/s 761 mmHg 48%
17:00 +32°C° 0 mm 4 m/s 760 mmHg 50%
18:00 +29°C° 0 mm 4 m/s 760 mmHg 59%
19:00 +28°C° 0 mm 4 m/s 760 mmHg 68%
20:00 +26°C° 0 mm 3 m/s 760 mmHg 77%
21:00 +25°C° 0 mm 3 m/s 760 mmHg 80%
22:00 +24°C° 0 mm 3 m/s 760 mmHg 84%
23:00 +22°C° 0 mm 3 m/s 760 mmHg 87%

Demain, 21 Juin, Lundi

Heure Température Précipitation Vent Pression Humidité
00:00 +22°C° 0 mm 3 m/s 760 mmHg 89%
01:00 +21°C° 0 mm 3 m/s 760 mmHg 90%
02:00 +21°C° 0 mm 3 m/s 760 mmHg 91%
03:00 +21°C° 0 mm 3 m/s 760 mmHg 91%
04:00 +21°C° 0 mm 3 m/s 760 mmHg 91%
05:00 +21°C° 0 mm 3 m/s 760 mmHg 91%
06:00 +23°C° 0 mm 4 m/s 760 mmHg 83%
07:00 +25°C° 0 mm 4 m/s 760 mmHg 76%
08:00 +27°C° 0 mm 4 m/s 760 mmHg 69%
09:00 +28°C° 0 mm 4 m/s 760 mmHg 63%
10:00 +29°C° 0 mm 5 m/s 760 mmHg 58%
11:00 +30°C° 0 mm 5 m/s 760 mmHg 52%
12:00 +32°C° 0 mm 5 m/s 760 mmHg 49%
13:00 +33°C° 0 mm 5 m/s 759 mmHg 46%
14:00 +33°C° 0 mm 5 m/s 759 mmHg 43%
15:00 +33°C° 0 mm 4 m/s 759 mmHg 43%
16:00 +33°C° 0 mm 4 m/s 759 mmHg 44%
17:00 +33°C° 0 mm 4 m/s 759 mmHg 45%
18:00 +30°C° 0 mm 4 m/s 759 mmHg 51%
19:00 +29°C° 0 mm 4 m/s 759 mmHg 57%
20:00 +28°C° 0 mm 3 m/s 758 mmHg 62%
21:00 +26°C° 0 mm 3 m/s 759 mmHg 67%
22:00 +25°C° 0 mm 3 m/s 759 mmHg 72%
23:00 +24°C° 0 mm 3 m/s 759 mmHg 77%

Après-demain, 22 Juin, Mardi

Heure Température Précipitation Vent Pression Humidité
00:00 +22°C° 0 mm 3 m/s 759 mmHg 80%
01:00 +21°C° 0 mm 3 m/s 758 mmHg 83%
02:00 +21°C° 0 mm 3 m/s 758 mmHg 86%
03:00 +21°C° 0 mm 3 m/s 758 mmHg 87%
04:00 +21°C° 0 mm 3 m/s 758 mmHg 87%
05:00 +21°C° 0 mm 3 m/s 758 mmHg 87%
06:00 +22°C° 0.1 mm 3 m/s 758 mmHg 82%
07:00 +25°C° 0.1 mm 3 m/s 758 mmHg 77%
08:00 +26°C° 0.1 mm 4 m/s 758 mmHg 71%
09:00 +27°C° 0.3 mm 4 m/s 758 mmHg 68%
10:00 +28°C° 0.3 mm 4 m/s 758 mmHg 65%
11:00 +29°C° 0.3 mm 4 m/s 758 mmHg 62%
12:00 +29°C° 0.2 mm 4 m/s 758 mmHg 61%
13:00 +30°C° 0.2 mm 5 m/s 758 mmHg 59%
14:00 +30°C° 0.2 mm 5 m/s 758 mmHg 58%
15:00 +29°C° 0.3 mm 4 m/s 758 mmHg 63%
16:00 +29°C° 0.3 mm 4 m/s 758 mmHg 67%
17:00 +28°C° 0.3 mm 4 m/s 758 mmHg 71%
18:00 +27°C° 0.1 mm 3 m/s 758 mmHg 75%
19:00 +26°C° 0.1 mm 3 m/s 758 mmHg 79%
20:00 +26°C° 0.1 mm 2 m/s 758 mmHg 83%
21:00 +25°C° 0 mm 2 m/s 759 mmHg 86%
22:00 +23°C° 0 mm 2 m/s 759 mmHg 90%
23:00 +21°C° 0 mm 2 m/s 759 mmHg 93%

23 Juin, Mercredi

Heure Température Précipitation Vent Pression Humidité
00:00 +21°C° 0.3 mm 2 m/s 760 mmHg 94%
01:00 +20°C° 0.3 mm 2 m/s 760 mmHg 95%
02:00 +19°C° 0.3 mm 2 m/s 760 mmHg 96%
03:00 +19°C° 0.3 mm 2 m/s 760 mmHg 95%
04:00 +19°C° 0.3 mm 1 m/s 760 mmHg 94%
05:00 +19°C° 0.3 mm 1 m/s 761 mmHg 93%
06:00 +20°C° 0.1 mm 1 m/s 761 mmHg 88%
07:00 +20°C° 0.1 mm 0 m/s 761 mmHg 84%
08:00 +21°C° 0.1 mm 0 m/s 761 mmHg 79%
09:00 +24°C° 0 mm 1 m/s 761 mmHg 72%
10:00 +26°C° 0 mm 1 m/s 761 mmHg 65%
11:00 +28°C° 0 mm 2 m/s 761 mmHg 58%
12:00 +28°C° 0 mm 2 m/s 761 mmHg 57%
13:00 +28°C° 0 mm 3 m/s 761 mmHg 56%
14:00 +28°C° 0 mm 3 m/s 761 mmHg 55%
15:00 +27°C° 0.2 mm 3 m/s 761 mmHg 58%
16:00 +26°C° 0.2 mm 3 m/s 761 mmHg 61%
17:00 +25°C° 0.2 mm 3 m/s 761 mmHg 64%
18:00 +24°C° 0.3 mm 3 m/s 761 mmHg 68%
19:00 +21°C° 0.3 mm 3 m/s 761 mmHg 72%
20:00 +20°C° 0.3 mm 3 m/s 761 mmHg 76%
21:00 +19°C° 0 mm 3 m/s 762 mmHg 77%
22:00 +18°C° 0 mm 2 m/s 762 mmHg 78%
23:00 +18°C° 0 mm 2 m/s 762 mmHg 79%

24 Juin, Jeudi

Heure Température Précipitation Vent Pression Humidité
00:00 +18°C° 0.1 mm 2 m/s 762 mmHg 82%
01:00 +17°C° 0.1 mm 2 m/s 762 mmHg 85%
02:00 +17°C° 0.1 mm 2 m/s 762 mmHg 88%
03:00 +18°C° 0.1 mm 2 m/s 761 mmHg 88%
04:00 +18°C° 0.1 mm 2 m/s 761 mmHg 87%
05:00 +19°C° 0.1 mm 2 m/s 761 mmHg 87%
06:00 +19°C° 0.9 mm 2 m/s 761 mmHg 89%
07:00 +19°C° 0.9 mm 2 m/s 761 mmHg 91%
08:00 +19°C° 0.9 mm 3 m/s 761 mmHg 93%
09:00 +23°C° 0.1 mm 2 m/s 761 mmHg 86%
10:00 +25°C° 0.1 mm 2 m/s 761 mmHg 80%
11:00 +27°C° 0.1 mm 1 m/s 761 mmHg 73%
12:00 +28°C° 0.7 mm 1 m/s 761 mmHg 69%
13:00 +29°C° 0.7 mm 2 m/s 761 mmHg 65%
14:00 +30°C° 0.7 mm 2 m/s 761 mmHg 61%
15:00 +30°C° 1 mm 2 m/s 760 mmHg 63%
16:00 +29°C° 1 mm 2 m/s 760 mmHg 66%
17:00 +29°C° 1 mm 3 m/s 760 mmHg 69%
18:00 +28°C° 0.1 mm 2 m/s 760 mmHg 73%
19:00 +26°C° 0.1 mm 2 m/s 760 mmHg 77%
20:00 +25°C° 0.1 mm 1 m/s 760 mmHg 81%
21:00 +24°C° 0 mm 1 m/s 761 mmHg 85%
22:00 +22°C° 0 mm 1 m/s 761 mmHg 89%
23:00 +19°C° 0 mm 2 m/s 761 mmHg 93%

25 Juin, Vendredi

Heure Température Précipitation Vent Pression Humidité
00:00 +19°C° 0 mm 2 m/s 761 mmHg 94%
01:00 +18°C° 0 mm 2 m/s 761 mmHg 95%
02:00 +17°C° 0 mm 2 m/s 761 mmHg 97%
03:00 +17°C° 0 mm 2 m/s 761 mmHg 95%
04:00 +18°C° 0 mm 1 m/s 761 mmHg 94%
05:00 +16°C° 0 mm 1 m/s 761 mmHg 92%
06:00 +19°C° 0 mm 1 m/s 761 mmHg 84%
07:00 +19°C° 0 mm 0 m/s 761 mmHg 77%
08:00 +21°C° 0 mm 0 m/s 761 mmHg 69%
09:00 +24°C° 0 mm 1 m/s 761 mmHg 64%
10:00 +26°C° 0 mm 1 m/s 760 mmHg 58%
11:00 +27°C° 0 mm 2 m/s 760 mmHg 53%
12:00 +27°C° 0.1 mm 2 m/s 760 mmHg 54%
13:00 +28°C° 0.1 mm 2 m/s 760 mmHg 54%
14:00 +28°C° 0.1 mm 2 m/s 760 mmHg 55%
15:00 +27°C° 0.5 mm 2 m/s 759 mmHg 60%
16:00 +27°C° 0.5 mm 2 m/s 759 mmHg 64%
17:00 +26°C° 0.5 mm 3 m/s 759 mmHg 69%
18:00 +25°C° 1.4 mm 2 m/s 759 mmHg 76%
19:00 +23°C° 1.4 mm 2 m/s 758 mmHg 83%
20:00 +21°C° 1.4 mm 2 m/s 758 mmHg 91%
21:00 +20°C° 0.1 mm 2 m/s 759 mmHg 92%
22:00 +19°C° 0.1 mm 2 m/s 759 mmHg 94%
23:00 +19°C° 0.1 mm 1 m/s 759 mmHg 96%
Voir plus

Nous avons besoin de votre consentement

Meteoprog et ses fournisseurs de services peuvent stocker et accéder à des données personnelles telles que des cookies, des identifiants d'appareils ou d'autres technologies similaires sur votre appareil et traiter ces données pour personnaliser le contenu et les publicités, ainsi que pour fournir des fonctionnalités de médias sociaux et analyser le trafic.

  • Stocker et/ou accéder à des informations sur votre appareil

    Des cookies, des identifiants d'appareils ou d'autres informations peuvent être stockés ou accessibles sur votre appareil aux fins indiquées ci-dessus.

  • Annonces et contenus personnalisés, mesure des annonces et des contenus, connaissance de l'audience et développement de produits

    Les annonces et le contenu peuvent être personnalisés en fonction d'un profil. D'autres données peuvent être ajoutées pour mieux personnaliser les annonces et le contenu. Les performances des publicités et du contenu peuvent être mesurées. Il est possible d'obtenir des informations sur le public qui a vu les publicités et le contenu. Ces données peuvent être utilisées pour développer ou améliorer l'expérience de l'utilisateur, les systèmes et les logiciels.

En cliquant sur "J'accepte", vous autorisez l'utilisation de cookies, des identifiants d'appareils, des balises web ou d'autres technologies similaires. Vos paramètres peuvent être modifiés dans le navigateur de votre appareil.

Dans certains cas, des intérêts légitimes peuvent être invoqués plutôt qu'un consentement. Vous pouvez en savoir plus à ce sujet dans notre Politique de confidentialité et de cookies.